Regional Weather Roundup
Issued by NWS

Home | Current Version | Previous Version | Text Only | Print | Product List | Glossary On
Versions: 1 2 3 4 5 6 7 8 9 10 11 12 13 14 15 16 17 18 19 20 21 22 23 24 25 26 27 28 29 30 31 32 33 34 35 36 37 38 39 40 41 42 43 44 45 46 47 48 49 50
000
ASUS44 KBMX 041510
RWRAL

ALABAMA REGIONAL WEATHER ROUNDUP
NATIONAL WEATHER SERVICE BIRMINGHAM AL
1000 AM CDT SAT JUL 04 2015

NOTE: "FAIR" INDICATES FEW OR NO CLOUDS BELOW 12,000 FEET
WITH NO SIGNIFICANT WEATHER AND/OR OBSTRUCTIONS TO VISIBILITY.

THE REMARK "TC" DENOTES TEMPERATURE IN DEGREES CELSIUS.

ALZ001>011-014-016>018-020-041600-
NORTH ALABAMA

CITY           SKY/WX    TMP DP  RH WIND       PRES   REMARKS
MUSCLE SHOALS  CLOUDY    73  69  87 S6        30.05R
HUNTSVILLE     LGT RAIN  73  69  87 SW6       30.06R
DECATUR        LGT RAIN  71  69  93 SW7       30.07R
HALEYVILLE     LGT RAIN  70  70 100 SW5       30.09F
GADSDEN        CLOUDY    79  64  61 S5        30.08S
$$

ALZ012-013-022-023-030>036-040>044-041600-
WEST CENTRAL ALABAMA

CITY           SKY/WX    TMP DP  RH WIND       PRES   REMARKS
TUSCALOOSA     PTSUNNY   77  69  76 N5        30.08F
$$

ALZ015-024>027-033>036-040>044-041600-
CENTRAL ALABAMA

CITY           SKY/WX    TMP DP  RH WIND       PRES   REMARKS
BIRMINGHAM     CLOUDY    72  70  93 W7        30.12R
MONTGOMERY     CLOUDY    84  75  74 W10       30.09S HX  92
SHELBY CO ARPT PTSUNNY   75  70  84 NW8       30.11R
MAXWELL AFB    CLOUDY    82  75  78 SW6       30.09R
GREENVILLE     PTSUNNY   84  74  71 W10       30.09S HX  91
$$

ALZ019-021-028-029-037-038-045>048-041600-
EAST CENTRAL ALABAMA

CITY           SKY/WX    TMP DP  RH WIND       PRES   REMARKS
ANNISTON       LGT RAIN  70  67  90 W5        30.10S
ALEXANDER CITY CLOUDY    72  67  85 N7        30.13R
AUBURN         CLOUDY    75  70  83 SW9G16    30.12R
$$

ALZ051>064-041600-
SOUTHWEST ALABAMA

CITY           SKY/WX    TMP DP  RH WIND       PRES   REMARKS
MOBILE         PTSUNNY   84  75  74 SW5       30.10S HX  92
BROOKLEY FIELD MOSUNNY   88  75  65 W6        30.10S HX  97
EVERGREEN      PTSUNNY   83  75  77 W7        30.10R HX  90
$$

ALZ049-050-065>069-041600-
SOUTHEAST ALABAMA

CITY           SKY/WX    TMP DP  RH WIND       PRES   REMARKS
DOTHAN         CLOUDY    83  77  82 W8          N/A  HX  92
OZARK          PTSUNNY   84  77  79 SW13      30.10S HX  94
TROY           CLOUDY    84  74  71 W9        30.11R HX  91
EUFAULA        FAIR      86  76  71 VRB3      30.09S HX  96
$$


USA.gov is the U.S. government's official web portal to all federal, state and local government web resources and services.